106  
ASUS44 KBMX 241910  
RWRAL  
 
ALABAMA REGIONAL WEATHER ROUNDUP  
NATIONAL WEATHER SERVICE BIRMINGHAM AL  
200 PM CDT SUN SEP 24 2017  
 
NOTE: "FAIR" INDICATES FEW OR NO CLOUDS BELOW 12,000 FEET  
WITH NO SIGNIFICANT WEATHER AND/OR S TO VISIBILITY
.  
 
THE REMARK "TC" DENOTES TEMPERATURE IN DEGREES CELSIUS.  
 
ALZ001>011-014-016>018-020-242000-  
NORTH ALABAMA  
 
CITY SKY/WX TMP DP RH WIND PRES REMARKS
 
MUSCLE SHOALS MOSUNNY 86 63 45 SE5 30.03F  
HUNTSVILLE PTSUNNY 87 67 51 S6 30.03F HX 90  
DECATUR SUNNY 86 66 51 CALM 30.03F  
HALEYVILLE FAIR 85 68 56 E7 30.06F  
GADSDEN PTSUNNY 84 71 65 E13 30.03F  

 
 
ALZ012-013-022-023-030>036-040>044-242000-  
WEST CENTRAL ALABAMA  
 
CITY SKY/WX TMP DP RH WIND PRES REMARKS
 
TUSCALOOSA MOSUNNY 88 66 48 E8G20 29.99F HX 90  
DEMOPOLIS N/A 87 62 42 E6 29.97F  

 
 
ALZ015-024>026-033>036-041>044-242000-  
CENTRAL ALABAMA  
 
CITY SKY/WX TMP DP RH WIND PRES REMARKS
 
BIRMINGHAM MOSUNNY 86 63 45 E8 30.04F  
MONTGOMERY CLOUDY 89 63 41 E10 29.98F HX 90  
SHELBY CO ARPT PTSUNNY 86 68 54 E8 30.01F  
MAXWELL AFB PTSUNNY 87 65 47 E9 29.97F  
GREENVILLE FAIR 85 63 47 E9 29.97F  
SELMA FAIR 88 63 42 E13 29.98S  
PRATTVILLE MOCLDY 85 67 53 NE7 29.98F  
BESSEMER MOCLDY 85 65 51 E10 30.02F  
TALLADEGA FAIR N/A N/A N/A MISG 30.02F  
PELL CITY CLEAR 86 66 51 E5 30.02F  
MARION FAIR 86 65 49 SE7 29.98F  
SYLACAUGA FAIR 89 66 47 CALM 30.02F HX 91  

 
 
ALZ019-021-028-029-037-038-045>048-242000-  
EAST CENTRAL ALABAMA  
 
CITY SKY/WX TMP DP RH WIND PRES REMARKS
 
ANNISTON MOSUNNY 86 63 45 E8 30.02F  
ALEXANDER CITY MOSUNNY 85 64 50 E6G16 30.02F  
AUBURN NOT AVBL  

 
 
ALZ051>064-242000-  
SOUTHWEST ALABAMA  
 
CITY SKY/WX TMP DP RH WIND PRES REMARKS
 
MOBILE CLOUDY 84 68 58 E12 29.96F  
BROOKLEY FIELD CLOUDY 81 73 76 E6 29.96F  
EVERGREEN CLOUDY 85 65 51 E8 29.97F  

 
 
ALZ049-050-065>069-242000-  
SOUTHEAST ALABAMA  
 
CITY SKY/WX TMP DP RH WIND PRES REMARKS
 
DOTHAN PTSUNNY 84 67 56 E10 29.99F  
OZARK CLOUDY 84 67 55 E6 29.95F  
TROY PTSUNNY 85 64 49 E10G17 29.98F  
EUFAULA FAIR 89 67 47 E8 29.97F HX 92  

 
 
 
CLICK HERE TO GO TO PREVIOUS BULLETINS.

The Nexlab AL Page Main Text Page